SAS2647 ESSA-EDDH

Flight info

Callsign SAS2647
Flight time N/A
Altitude 34000
Route NOSLI N850 ABAMA DCT GIMRU T503 MICOS/N0396F280 N850 BOGMU BOGMU3S
Aircraft A320/M-SDE3FGHIRWY/LB1

Departure

Time N/A
Airport Stockholm-Arlanda Airport (ESSA)

Arrival

Time 2026-04-25 20:13
Airport Hamburg Helmut Schmidt Airport (EDDH)
Time Latitude Longitude Altitude Speed Heading
2026-04-25 19:14 57.71716 15.05480 33863 ft 474 kts 222°
2026-04-25 19:14 57.66325 14.98362 33866 ft 474 kts 222°
2026-04-25 19:15 57.60931 14.91253 33863 ft 475 kts 222°
2026-04-25 19:15 57.55531 14.84165 33839 ft 475 kts 222°
2026-04-25 19:16 57.50121 14.77099 33861 ft 475 kts 222°
2026-04-25 19:16 57.44713 14.70049 33872 ft 475 kts 222°
2026-04-25 19:17 57.39315 14.63055 33873 ft 475 kts 222°
2026-04-25 19:17 57.33886 14.56048 33826 ft 475 kts 222°
2026-04-25 19:18 57.28466 14.49064 33842 ft 475 kts 222°
2026-04-25 19:18 57.23032 14.42089 33852 ft 474 kts 222°
2026-04-25 19:19 57.17605 14.35152 33822 ft 475 kts 223°
2026-04-25 19:19 57.12199 14.28264 33828 ft 476 kts 223°
2026-04-25 19:20 57.06711 14.21284 33854 ft 477 kts 223°
2026-04-25 19:20 57.01264 14.14403 33874 ft 478 kts 223°
2026-04-25 19:21 56.95771 14.07508 33883 ft 478 kts 223°
2026-04-25 19:21 56.87544 13.97216 33886 ft 477 kts 223°
2026-04-25 19:22 56.82053 13.90354 33872 ft 477 kts 223°
2026-04-25 19:23 56.73867 13.80151 33891 ft 477 kts 223°
2026-04-25 19:23 56.65628 13.69977 33896 ft 477 kts 223°
2026-04-25 19:24 56.60136 13.63219 33865 ft 477 kts 223°
2026-04-25 19:25 56.50068 13.50881 33899 ft 476 kts 223°
2026-04-25 19:25 56.44575 13.44190 33903 ft 475 kts 223°
2026-04-25 19:26 56.39081 13.37516 33901 ft 475 kts 223°
2026-04-25 19:26 56.33583 13.30875 33819 ft 475 kts 224°
2026-04-25 19:27 56.28997 13.25347 33883 ft 478 kts 225°
2026-04-25 19:27 56.22556 13.17614 33889 ft 479 kts 224°
2026-04-25 19:28 56.17006 13.10966 33903 ft 479 kts 224°
2026-04-25 19:28 56.11449 13.04342 33888 ft 479 kts 225°
2026-04-25 19:29 56.05895 12.97728 33898 ft 479 kts 225°
2026-04-25 19:29 56.00366 12.91190 33911 ft 480 kts 225°
2026-04-25 19:30 55.94794 12.84618 33923 ft 480 kts 225°
2026-04-25 19:30 55.89224 12.78069 33884 ft 479 kts 226°
2026-04-25 19:31 55.83652 12.71527 33916 ft 479 kts 226°
2026-04-25 19:31 55.78100 12.65035 33942 ft 480 kts 226°
2026-04-25 19:32 55.72515 12.58532 33954 ft 480 kts 225°
2026-04-25 19:32 55.67826 12.53101 33955 ft 480 kts 225°
2026-04-25 19:33 55.61321 12.45597 33955 ft 480 kts 226°
2026-04-25 19:33 55.55717 12.39142 33961 ft 480 kts 226°
2026-04-25 19:34 55.50121 12.32722 33946 ft 480 kts 226°
2026-04-25 19:34 55.44528 12.26326 33935 ft 479 kts 226°
2026-04-25 19:35 55.38934 12.19931 33947 ft 479 kts 226°
2026-04-25 19:35 55.33374 12.13606 33962 ft 479 kts 226°
2026-04-25 19:36 55.27768 12.07262 33961 ft 479 kts 226°
2026-04-25 19:36 55.22156 12.00944 33963 ft 479 kts 226°
2026-04-25 19:37 55.16553 11.94666 33954 ft 476 kts 226°
2026-04-25 19:37 55.10986 11.88426 33990 ft 475 kts 226°
2026-04-25 19:38 55.05428 11.82204 34002 ft 474 kts 226°
2026-04-25 19:38 54.99871 11.76008 33999 ft 474 kts 226°
2026-04-25 19:39 54.94337 11.69864 33949 ft 474 kts 225°
2026-04-25 19:39 54.88730 11.63679 33473 ft 476 kts 225°
2026-04-25 19:40 54.85945 11.60607 32496 ft 473 kts 225°
2026-04-25 19:40 54.83174 11.57560 31493 ft 470 kts 225°
2026-04-25 19:40 54.80421 11.54536 30570 ft 467 kts 226°
2026-04-25 19:40 54.77720 11.51571 29612 ft 463 kts 226°
2026-04-25 19:41 54.75014 11.48609 28838 ft 454 kts 226°
2026-04-25 19:41 54.72376 11.45752 28436 ft 438 kts 226°
2026-04-25 19:41 54.69841 11.43017 28008 ft 422 kts 226°
2026-04-25 19:41 54.68205 11.41246 27737 ft 418 kts 226°
2026-04-25 19:42 54.64922 11.37646 27102 ft 417 kts 225°
2026-04-25 19:42 54.62484 11.34969 26732 ft 414 kts 225°
2026-04-25 19:42 54.60055 11.32304 26297 ft 414 kts 225°
2026-04-25 19:42 54.57623 11.29649 25861 ft 413 kts 225°
2026-04-25 19:43 54.55189 11.27002 25410 ft 414 kts 225°
2026-04-25 19:43 54.52779 11.24390 24968 ft 414 kts 225°
2026-04-25 19:43 54.50340 11.21752 24498 ft 414 kts 224°
2026-04-25 19:43 54.47894 11.19114 23985 ft 415 kts 224°
2026-04-25 19:44 54.45450 11.16482 23546 ft 414 kts 223°
2026-04-25 19:44 54.43008 11.13864 23141 ft 411 kts 223°
2026-04-25 19:44 54.40581 11.11266 22649 ft 409 kts 223°
2026-04-25 19:44 54.38177 11.08697 22145 ft 408 kts 224°
2026-04-25 19:45 54.35781 11.06137 21829 ft 402 kts 224°
2026-04-25 19:45 54.33420 11.03623 21311 ft 396 kts 224°
2026-04-25 19:45 54.31169 11.01037 20661 ft 377 kts 233°
2026-04-25 19:45 54.29393 10.98011 20250 ft 344 kts 246°
2026-04-25 19:46 54.27969 10.94859 19860 ft 328 kts 247°
2026-04-25 19:46 54.26599 10.91831 19480 ft 316 kts 247°
2026-04-25 19:46 54.25276 10.88908 19088 ft 305 kts 247°
2026-04-25 19:46 54.24004 10.86078 18769 ft 304 kts 247°
2026-04-25 19:47 54.22717 10.83203 18404 ft 304 kts 247°
2026-04-25 19:47 54.21430 10.80337 18010 ft 304 kts 247°
2026-04-25 19:47 54.20140 10.77473 17619 ft 304 kts 247°
2026-04-25 19:47 54.18849 10.74618 17239 ft 303 kts 246°
2026-04-25 19:48 54.17558 10.71769 16856 ft 303 kts 246°
2026-04-25 19:48 54.16270 10.68929 16485 ft 302 kts 246°
2026-04-25 19:48 54.14983 10.66099 16108 ft 302 kts 246°
2026-04-25 19:48 54.13694 10.63275 15737 ft 302 kts 246°
2026-04-25 19:49 54.12406 10.60448 15334 ft 302 kts 246°
2026-04-25 19:49 54.11971 10.59494 15211 ft 301 kts 246°
2026-04-25 19:49 54.09831 10.54808 14610 ft 301 kts 246°
2026-04-25 19:49 54.08539 10.51988 14228 ft 302 kts 245°
2026-04-25 19:50 54.05965 10.46371 13340 ft 305 kts 245°
2026-04-25 19:50 54.04675 10.43569 12952 ft 296 kts 245°
2026-04-25 19:50 54.03407 10.40821 12573 ft 294 kts 244°
2026-04-25 19:51 54.02146 10.38078 12222 ft 293 kts 244°
2026-04-25 19:51 54.00891 10.35343 11854 ft 293 kts 244°
2026-04-25 19:51 53.99543 10.32713 11486 ft 304 kts 231°
2026-04-25 19:51 53.97648 10.30877 11099 ft 327 kts 206°
2026-04-25 19:52 53.95337 10.30505 10907 ft 341 kts 178°
2026-04-25 19:52 53.93015 10.31546 10791 ft 348 kts 166°
2026-04-25 19:52 53.90710 10.32814 10643 ft 348 kts 166°
2026-04-25 19:52 53.88415 10.34102 10503 ft 347 kts 166°
2026-04-25 19:53 53.86125 10.35390 10357 ft 346 kts 166°
2026-04-25 19:53 53.83875 10.36651 10201 ft 344 kts 166°
2026-04-25 19:53 53.81606 10.37911 10060 ft 342 kts 166°
2026-04-25 19:53 53.79357 10.39154 9848 ft 338 kts 166°
2026-04-25 19:54 53.77141 10.40376 9295 ft 333 kts 166°
2026-04-25 19:54 53.74947 10.41579 8696 ft 329 kts 166°
2026-04-25 19:54 53.72786 10.42759 8262 ft 320 kts 166°
2026-04-25 19:54 53.72079 10.43148 8221 ft 314 kts 166°
2026-04-25 19:55 53.68602 10.45051 7085 ft 317 kts 166°
2026-04-25 19:55 53.66510 10.46192 6548 ft 314 kts 165°
2026-04-25 19:55 53.64481 10.47251 6379 ft 294 kts 173°
2026-04-25 19:55 53.62538 10.47378 6124 ft 268 kts 197°
2026-04-25 19:56 53.60838 10.46382 5818 ft 252 kts 220°
2026-04-25 19:56 53.59332 10.44816 5205 ft 267 kts 212°
2026-04-25 19:56 53.57439 10.44189 5000 ft 284 kts 181°
2026-04-25 19:56 53.55504 10.44513 4977 ft 273 kts 175°
2026-04-25 19:57 53.53645 10.44964 4960 ft 269 kts 175°
2026-04-25 19:57 53.51803 10.45448 4978 ft 268 kts 174°
2026-04-25 19:57 53.49962 10.45947 4982 ft 268 kts 174°
2026-04-25 19:57 53.48124 10.46452 4991 ft 267 kts 174°
2026-04-25 19:58 53.46290 10.46965 4990 ft 267 kts 174°
2026-04-25 19:58 53.44457 10.47481 4990 ft 267 kts 174°
2026-04-25 19:58 53.42622 10.47997 4990 ft 267 kts 174°
2026-04-25 19:58 53.40785 10.48510 4991 ft 267 kts 174°
2026-04-25 19:59 53.38951 10.49023 4991 ft 267 kts 174°
2026-04-25 19:59 53.37141 10.49521 4997 ft 267 kts 174°
2026-04-25 19:59 53.35309 10.50024 4996 ft 266 kts 174°
2026-04-25 19:59 53.33476 10.50528 4996 ft 267 kts 174°
2026-04-25 20:00 53.31647 10.51031 4997 ft 267 kts 174°
2026-04-25 20:00 53.31025 10.51202 4998 ft 267 kts 174°
2026-04-25 20:00 53.27982 10.52035 4991 ft 267 kts 174°
2026-04-25 20:00 53.26149 10.52544 4993 ft 268 kts 174°
2026-04-25 20:01 53.22600 10.52189 4992 ft 246 kts 220°
2026-04-25 20:01 53.21463 10.50265 4995 ft 225 kts 252°
2026-04-25 20:01 53.21176 10.47851 5004 ft 207 kts 285°
2026-04-25 20:02 53.21763 10.45786 5005 ft 197 kts 318°
2026-04-25 20:02 53.22977 10.44797 5001 ft 201 kts 350°
2026-04-25 20:02 53.24374 10.44736 5004 ft 202 kts 347°
2026-04-25 20:02 53.25615 10.43796 4830 ft 198 kts 316°
2026-04-25 20:03 53.26456 10.41978 4496 ft 199 kts 306°
2026-04-25 20:03 53.27201 10.40002 4077 ft 203 kts 304°
2026-04-25 20:03 53.27924 10.38031 4004 ft 196 kts 304°
2026-04-25 20:03 53.28633 10.36077 4003 ft 196 kts 304°
2026-04-25 20:04 53.29341 10.34121 4014 ft 197 kts 304°
2026-04-25 20:04 53.30046 10.32157 4000 ft 197 kts 304°
2026-04-25 20:04 53.30750 10.30179 4002 ft 198 kts 304°
2026-04-25 20:04 53.31456 10.28189 4000 ft 200 kts 304°
2026-04-25 20:05 53.32168 10.26184 4001 ft 200 kts 304°
2026-04-25 20:05 53.32892 10.24192 4003 ft 200 kts 309°
2026-04-25 20:05 53.33950 10.22773 4005 ft 197 kts 333°
2026-04-25 20:05 53.35198 10.21804 4006 ft 198 kts 335°
2026-04-25 20:06 53.36456 10.20886 4007 ft 198 kts 335°
2026-04-25 20:06 53.37721 10.19977 4008 ft 197 kts 336°
2026-04-25 20:06 53.38976 10.19109 4007 ft 197 kts 336°
2026-04-25 20:06 53.40248 10.18238 4006 ft 197 kts 336°
2026-04-25 20:07 53.41522 10.17377 3999 ft 197 kts 337°
2026-04-25 20:07 53.42801 10.16550 4001 ft 197 kts 336°
2026-04-25 20:07 53.44066 10.15644 4008 ft 197 kts 335°
2026-04-25 20:07 53.45314 10.14704 4007 ft 197 kts 334°
2026-04-25 20:08 53.46564 10.13754 4006 ft 197 kts 334°
2026-04-25 20:08 53.47812 10.12802 4007 ft 197 kts 334°
2026-04-25 20:08 53.49059 10.11852 4009 ft 197 kts 334°
2026-04-25 20:08 53.50296 10.10908 3798 ft 195 kts 334°
2026-04-25 20:09 53.51500 10.09986 3599 ft 188 kts 334°
2026-04-25 20:09 53.52661 10.09092 3432 ft 180 kts 332°
2026-04-25 20:09 53.53737 10.07970 2900 ft 183 kts 323°
2026-04-25 20:09 53.54760 10.06728 2260 ft 181 kts 327°
2026-04-25 20:10 53.55801 10.05771 2002 ft 156 kts 333°
2026-04-25 20:10 53.56736 10.05029 1693 ft 140 kts 332°
2026-04-25 20:10 53.57527 10.04327 1489 ft 122 kts 330°
2026-04-25 20:10 53.58296 10.03688 1245 ft 125 kts 332°
2026-04-25 20:11 53.59047 10.03060 1051 ft 117 kts 328°
2026-04-25 20:11 53.59766 10.02396 850 ft 120 kts 329°
2026-04-25 20:11 53.60524 10.01761 663 ft 124 kts 329°
2026-04-25 20:11 53.61307 10.01097 457 ft 127 kts 330°
2026-04-25 20:12 53.61816 10.00671 330 ft 121 kts 327°
2026-04-25 20:12 53.62553 10.00009 154 ft 120 kts 327°
2026-04-25 20:12 53.63279 9.99375 49 ft 105 kts 330°
2026-04-25 20:12 53.63665 9.99040 48 ft 82 kts 334°
2026-04-25 20:13 53.63971 9.98837 51 ft 8 kts 74°
2026-04-25 20:13 53.63932 9.98954 50 ft 17 kts 126°
2026-04-25 20:13 53.63861 9.99122 49 ft 18 kts 126°
2026-04-25 20:13 53.63843 9.99165 48 ft 0 kts 126°
2026-04-25 20:14 53.63823 9.99210 48 ft 12 kts 126°
2026-04-25 20:14 53.63765 9.99343 48 ft 15 kts 126°
2026-04-25 20:14 53.63699 9.99495 48 ft 17 kts 126°
2026-04-25 20:14 53.63639 9.99634 49 ft 11 kts 125°
2026-04-25 20:15 53.63618 9.99685 49 ft 0 kts 125°
2026-04-25 20:15 53.63598 9.99735 50 ft 11 kts 124°
2026-04-25 20:16 53.63539 9.99875 51 ft 17 kts 127°
2026-04-25 20:16 53.63488 9.99987 50 ft 12 kts 127°
2026-04-25 20:16 53.63467 10.00034 49 ft 0 kts 127°
2026-04-25 20:16 53.63456 10.00059 48 ft 6 kts 126°
2026-04-25 20:17 53.63426 10.00129 48 ft 7 kts 127°
2026-04-25 20:17 53.63375 10.00162 46 ft 9 kts 174°
2026-04-25 20:17 53.63302 10.00169 47 ft 12 kts 176°
2026-04-25 20:17 53.63217 10.00179 48 ft 12 kts 176°
2026-04-25 20:18 53.63131 10.00190 48 ft 10 kts 176°
2026-04-25 20:18 53.63067 10.00177 45 ft 3 kts 205°
2026-04-25 20:18 53.63038 10.00171 48 ft 6 kts 178°
2026-04-25 20:18 53.62984 10.00165 48 ft 9 kts 198°
2026-04-25 20:19 53.62920 10.00104 48 ft 12 kts 211°
2026-04-25 20:19 53.62837 10.00077 48 ft 14 kts 156°
2026-04-25 20:19 53.62765 10.00140 48 ft 7 kts 153°
2026-04-25 20:19 53.62744 10.00174 48 ft 5 kts 96°
2026-04-25 20:20 53.62757 10.00221 47 ft 5 kts 63°
2026-04-25 20:20 53.62771 10.00267 46 ft 2 kts 62°
2026-04-25 20:20 53.62775 10.00278 47 ft 0 kts 62°